TimeEDT,TemperatureF,Dew PointF,Humidity,Sea Level PressureIn,VisibilityMPH,Wind Direction,Wind SpeedMPH,Gust SpeedMPH,PrecipitationIn,Events,Conditions,WindDirDegrees,DateUTC
12:52 AM,66.0,59.0,78,29.97,10.0,West,6.9,-,N/A,,Clear,260,2013-06-12 04:52:00
1:52 AM,66.0,59.0,78,29.97,10.0,West,6.9,-,N/A,,Clear,280,2013-06-12 05:52:00
2:52 AM,64.9,59.0,81,29.98,10.0,West,6.9,-,N/A,,Clear,260,2013-06-12 06:52:00
3:52 AM,64.9,59.0,81,29.98,10.0,WSW,5.8,-,N/A,,Clear,250,2013-06-12 07:52:00
4:52 AM,64.9,59.0,81,29.98,10.0,WSW,6.9,-,N/A,,Clear,250,2013-06-12 08:52:00
5:52 AM,64.9,59.0,81,29.98,10.0,WSW,5.8,-,N/A,,Clear,250,2013-06-12 09:52:00
6:22 AM,66.2,60.8,83,30.10,10.0,WSW,4.6,-,N/A,,Mostly Cloudy,250,2013-06-12 10:22:00
6:52 AM,68.0,60.1,76,29.99,10.0,West,5.8,-,N/A,,Mostly Cloudy,260,2013-06-12 10:52:00
7:07 AM,68.0,60.8,78,30.09,10.0,WSW,5.8,-,N/A,,Scattered Clouds,250,2013-06-12 11:07:00
7:52 AM,69.1,61.0,75,30.00,10.0,West,6.9,-,N/A,,Mostly Cloudy,270,2013-06-12 11:52:00
8:18 AM,69.8,62.6,78,30.10,10.0,West,6.9,-,N/A,,Mostly Cloudy,260,2013-06-12 12:18:00
8:52 AM,69.1,62.1,78,30.00,10.0,West,8.1,-,N/A,,Overcast,260,2013-06-12 12:52:00
9:41 AM,71.6,64.4,78,30.11,10.0,WSW,9.2,-,N/A,,Scattered Clouds,250,2013-06-12 13:41:00
9:52 AM,73.0,64.9,76,29.99,10.0,West,10.4,-,N/A,,Partly Cloudy,260,2013-06-12 13:52:00
10:06 AM,71.6,64.4,78,30.11,10.0,West,9.2,-,N/A,,Mostly Cloudy,270,2013-06-12 14:06:00
10:52 AM,73.9,66.9,79,29.99,10.0,West,11.5,19.6,0.03,,Mostly Cloudy,260,2013-06-12 14:52:00
11:21 AM,75.2,66.2,73,30.09,10.0,West,11.5,-,N/A,,Overcast,260,2013-06-12 15:21:00
11:52 AM,77.0,68.0,74,29.99,10.0,West,10.4,-,N/A,,Overcast,270,2013-06-12 15:52:00
12:52 PM,79.0,69.1,72,29.99,10.0,West,10.4,16.1,N/A,,Mostly Cloudy,280,2013-06-12 16:52:00
12:57 PM,78.8,69.8,74,30.10,10.0,WNW,11.5,16.1,N/A,,Scattered Clouds,290,2013-06-12 16:57:00
1:52 PM,82.9,70.0,65,29.97,10.0,West,10.4,19.6,N/A,,Scattered Clouds,280,2013-06-12 17:52:00
2:52 PM,82.9,66.9,58,29.96,10.0,WNW,18.4,28.8,N/A,,Clear,300,2013-06-12 18:52:00
3:52 PM,84.9,66.9,55,29.94,10.0,WNW,11.5,16.1,N/A,,Partly Cloudy,300,2013-06-12 19:52:00
4:52 PM,84.9,64.9,51,29.94,10.0,WNW,15.0,21.9,N/A,,Clear,290,2013-06-12 20:52:00
5:52 PM,84.0,66.9,56,29.92,10.0,West,9.2,-,N/A,,Scattered Clouds,270,2013-06-12 21:52:00
6:52 PM,84.0,64.0,51,29.89,10.0,WNW,8.1,-,N/A,,Clear,290,2013-06-12 22:52:00
7:52 PM,82.0,64.9,56,29.89,10.0,West,3.5,-,N/A,,Clear,260,2013-06-12 23:52:00
8:52 PM,79.0,64.9,62,29.89,10.0,SW,4.6,-,N/A,,Clear,220,2013-06-13 00:52:00
9:52 PM,77.0,64.9,66,29.90,10.0,West,3.5,-,N/A,,Clear,260,2013-06-13 01:52:00
10:52 PM,77.0,68.0,74,29.89,10.0,WSW,8.1,-,N/A,,Clear,250,2013-06-13 02:52:00
11:52 PM,75.0,68.0,79,29.87,10.0,West,6.9,-,N/A,,Clear,260,2013-06-13 03:52:00